Regional Weather Roundup
Issued by NWS Charleston, SC

Current Version | Previous Version | Text Only | Print | Product List | Glossary Off
Versions: 1 2 3 4 5 6 7 8 9 10 11 12 13 14 15 16 17 18 19 20 21 22 23 24 25 26 27 28 29 30 31 32 33 34 35 36 37 38 39 40 41 42 43 44 45 46 47 48 49 50

000
ASUS42 KCHS 180310
RWRCHS

REGIONAL WEATHER ROUNDUP
NATIONAL WEATHER SERVICE CHARLESTON SC
1000 PM EST WED DEC 17 2014

NOTE: "FAIR" INDICATES FEW OR NO CLOUDS BELOW 12,000 FEET WITH NO
SIGNIFICANT WEATHER AND/OR OBSTRUCTIONS TO VISIBILITY.

NOT ALL STATIONS ARE QUALITY CONTROLLED BY THE NATIONAL
WEATHER SERVICE. USE DATA WITH CAUTION...ESPECIALLY
DEWPOINT OBSERVATIONS.

SCZ027-030-031-034>040-042>050-180400-
...SOUTHEAST SOUTH CAROLINA...

CITY           SKY/WX    TMP DP  RH WIND       PRES   REMARKS
N CHARLESTON   PTCLDY    46  41  82 SW3       30.12S
WATERFRONT PRK   N/A     52 N/A N/A SW5         N/A
MOUNT PLEASANT FAIR      43  43 100 CALM      30.11F
PINOPOLIS        N/A     52  43  71 CALM      30.01F
MONCKS CORNER  FAIR      41  39  93 CALM      30.11S
SUMMERVILLE    NOT AVBL
BEAUFORT MCAS  PTCLDY    46  42  86 SW5       30.13R
BEAUFORT ARPT  FAIR      45  45 100 S3        30.12S
HILTON HEAD IS PTCLDY    46  45  93 CALM      30.14F
WALTERBORO     CLEAR     43 N/A N/A CALM      30.12S
ALLENDALE      FAIR      43  41  93 CALM      30.11S

...SOUTHERN MIDLANDS AND PEE DEE...

CITY           SKY/WX    TMP DP  RH WIND       PRES   REMARKS
GEORGETOWN     NOT AVBL
KINGSTREE      NOT AVBL
ORANGEBURG     CLEAR     42  39  89 CALM      30.11R
BARNWELL         N/A     39  37  93 CALM      30.12S
AIKEN          FAIR      39  39 100 CALM      30.14S
MANNING        NOT AVBL
COLUMBIA       PTCLDY    40  36  86 SW3       30.10S
SUMTER         PTCLDY    42  37  82 CALM      30.09S
FLORENCE       PTCLDY    43  39  86 CALM      30.10S
MYRTLE BEACH   CLEAR     48  41  76 SW8       30.12S
N MYRTLE BEACH PTCLDY    46  43  89 CALM      30.10S

$$

GAZ063-065-086>088-099>101-113>116-118-119-134>141-150-180400-
...SOUTHEAST GEORGIA...

CITY           SKY/WX    TMP DP  RH WIND       PRES   REMARKS
SAVANNAH ARPT  MOCLDY    48  41  76 CALM      30.13F
HUNTER AAF     CLEAR     45  42  90 W1        30.11F
FORT STEWART   CLEAR     43  40  89 CALM      30.12F
STATESBORO     PTCLDY    40  40 100 CALM      30.13S
SYLVANIA       PTCLDY    41  41  99 CALM      30.13S
CLAXTON        FAIR      41  41 100 CALM      30.14S

...CSRA...CENTRAL AND FAR SOUTHEAST GEORGIA...

CITY           SKY/WX    TMP DP  RH WIND       PRES   REMARKS
THOMSON        CLEAR     42  41  95 CALM      30.16F
AUGUSTA-BUSH   CLEAR     44  39  82 CALM      30.12S
AUGUSTA-DANIEL CLEAR     51  40  65 W6        30.12S
SWAINSBORO     FAIR      43  43 100 CALM      30.14S
VIDALIA        PTCLDY    45  41  87 CALM      30.14S
EASTMAN        FAIR      39  39 100 CALM      30.17S
HAZLEHURST     FAIR      45  45  97 CALM      30.13F
ALMA           CLEAR     41  38  89 CALM      30.15S
WAYCROSS       CLEAR     46  44  91 CALM      30.15S
JESUP          FAIR      43  43 100 CALM      30.14F
BAXLEY         FAIR      45  43  93 CALM      30.14S
BRUNSWICK      CLEAR     45  43  93 CALM      30.16R
SAINT SIMONS   CLEAR     48  44  86 CALM      30.15S

$$

SCZ027-028-034-036>038-045-046-048>050-GAZ119-141-180400-
...LAKE AND SUPPLEMENTAL COASTAL OBSERVATIONS...

STATION/POSITION TIME  TEMP    WIND        PRES    WAVE   SWELL
                       AIR SEA DIR/SP/G            HT/PER HT/PER/DIR
                 (UTC) (F)     (DEG/KT/KT) (MB)    (FT/S) (FT/S/D)
UPR LAKE MARION  NOT AVBL
WINYAH BAY       0200   47     240/  1     1019.0S
LAKE MURRAY      0200   48     290/  2/  2 1019.0S
ACE BASIN NERRS  0200   44        CALM     1020.0S
FORT PULASKI     0300   51 56  210/  3/  4 1020.6R
SAPELO ISLAND    0200   51     250/  1     1020.0S

$$

ANZ835-935-AMZ111-154-330-350-352-354-370-450-454-472-180400-
...C-MAN AND BUOY OBSERVATIONS...

STATION/POSITION TIME  TEMP    WIND        PRES    WAVE   SWELL
                       AIR SEA DIR/SP/G            HT/PER HT/PER/DIR
                 (UTC) (F)     (DEG/KT/KT) (MB)    (FT/S) (FT/S/D)
BUOY 41004       0300   61 73  260/  6/  8 1019.6R   1/11   2/11
BUOY 41008       0300   58 58  260/  6/  6 1020.7R   1/11   2/100/11
FOLLY BEACH CMAN 0200   51     250/  5/  5 1020.6R
CAPERS NEARSHORE 0200   55     250/ 10/ 12   N/A
FRIPP NEARSHORE  NOT AVBL


STATION/POSITION TIME  TEMP    WIND        PRES    WAVE   SWELL
                       AIR SEA DIR/SP/G            HT/PER HT/PER/DIR
                 (UTC) (F)     (DEG/KT/KT) (MB)    (FT/S) (FT/S/D)
5E ST. MARYS GA  0300      61                N/A     1/11
FRYING PAN BUOY  0300   60 65  270/ 10/ 14 1019.8R   2/10   2/110/10
BUOY 41025       0300   58                 1018.1R   3/ 7
CAPE LOOKOUT NC  0200   56     260/  9/ 11 1018.1S
BUOY 41002       0223   68 72  270/  4/  6 1019.7R   5/ 7   5/340/ 7
BUOY 41010       0300   70 76  280/  8/ 12 1020.7R   3/11   3/ 90/11
ST AUGUSTINE FL  0300   56     280/  4/  5 1021.8F


$$



USA.gov is the U.S. government's official web portal to all federal, state and local government web resources and services.